[[{"header":{"parameterUnit":"m.s-1","parameterCategory":1,"la1":30.2991,"la2":30.254,"lo1":-89.0895,"lo2":-89.0444,"dy":0.0017,"dx":0.0017,"nx":28,"ny":28,"refTime":"2024-10-08T21:00:00:Z","depth":0,"parameterNumber":2,"parameterNumberName":"U-component_of_WINDS"},"data":[0,0,0,0,0,0,0,0,0,0,0,0,0,0,0,0,0,0,0,0,0,0,0,0,0,0,0,0,0,0,0,0,0,0,0,0,0,0,0,0,0,0,0,0,0,0,0,0,0,0,0,0,0,0,0,0,0,0,-0.6597,-0.6598,0,-0.6675,-0.6676,-0.6677,-0.6662,-0.666,-0.6659,-0.6658,-0.674,-0.6743,-0.6747,0,0,0,0,0,0,0,0,0,0,0,0,0,-0.6437,-0.644,-0.6597,-0.6598,-0.6599,-0.6675,-0.6676,-0.6677,-0.6662,-0.666,-0.6659,-0.6657,-0.6739,-0.6743,-0.6747,0,0,0,0,0,0,0,0,0,0,0,0,0,-0.651,-0.6441,-0.6597,-0.6601,-0.6602,-0.6675,-0.6676,-0.6678,-0.6662,-0.666,-0.6658,-0.6656,-0.6737,-0.6742,-0.6748,-0.6823,0,0,-0.6764,-0.6766,0,0,0,0,0,0,0,0,-0.6506,-0.6516,-0.6599,-0.6601,-0.6602,-0.6657,-0.665,-0.6726,-0.6663,-0.664,-0.6658,-0.6655,-0.6714,-0.6721,-0.674,-0.6826,-0.683,-0.6764,-0.6767,-0.677,-0.6771,0,0,0,0,0,0,0,-0.6501,-0.6513,-0.6628,-0.6601,-0.6602,-0.6599,-0.6607,-0.6664,-0.6688,-0.6641,-0.664,-0.665,-0.6714,-0.6735,-0.6742,-0.6831,-0.6764,-0.6769,-0.6772,-0.6774,-0.6984,-0.6986,0,0,0,0,0,0,-0.6495,-0.6509,-0.6626,-0.6631,-0.6548,-0.6604,-0.6613,-0.6641,-0.6687,-0.6692,-0.6652,-0.6649,-0.6727,-0.6736,-0.6745,-0.6837,-0.6769,-0.6774,-0.6777,-0.6981,-0.6984,-0.6987,0,0,0,0,0,0,-0.6491,-0.6505,-0.6623,-0.6569,-0.6584,-0.6609,-0.6641,-0.6644,-0.6665,-0.6695,-0.6699,-0.6669,-0.6726,-0.6738,-0.6804,-0.684,-0.6777,-0.6782,-0.6979,-0.6982,-0.6986,-0.7022,0,0,0,0,0,0,-0.6487,-0.6504,-0.6532,-0.657,-0.6587,-0.668,-0.6643,-0.6647,-0.6674,-0.6671,-0.6712,-0.6717,-0.6725,-0.6796,-0.6809,-0.6846,-0.6786,-0.6975,-0.698,-0.6985,-0.7017,-0.7026,-0.7034,0,0,0,0,0,-0.6481,-0.654,-0.6534,-0.6548,-0.6623,-0.6682,-0.6691,-0.6699,-0.6677,-0.6706,-0.6725,-0.6715,-0.6833,-0.6803,-0.6817,-0.6857,-0.6973,-0.6979,-0.6984,-0.7014,-0.7024,-0.7033,0,0,0,0,0,0,-0.6507,-0.6545,-0.6539,-0.6611,-0.6643,-0.6679,-0.6716,-0.671,-0.675,-0.6746,-0.6754,-0.6764,-0.6831,-0.685,-0.6815,-0.6932,-0.69,-0.6909,-0.6918,-0.6928,-0.6936,-0.6931,-0.679,0,0,0,0,0,-0.652,-0.6564,-0.6595,-0.6656,-0.6673,-0.6691,-0.6717,-0.6721,-0.6754,-0.6768,-0.6792,-0.6826,-0.687,-0.69,-0.6942,-0.7019,-0.7029,-0.7053,-0.7061,-0.7068,-0.7076,-0.7119,-0.7131,-0.7005,-0.7005,-0.7005,0,0,-0.655,-0.6576,-0.6604,-0.6662,-0.6687,-0.6734,-0.6703,-0.6753,-0.6788,-0.6776,-0.684,-0.6858,-0.6897,-0.6969,-0.7002,-0.6987,-0.7113,-0.7075,-0.708,-0.7085,-0.7126,-0.7138,-0.7149,-0.7009,-0.7008,-0.7007,0,0,-0.6628,-0.6652,-0.6706,-0.6731,-0.6769,-0.6781,-0.6794,-0.6831,-0.6843,-0.6907,-0.6899,-0.694,-0.7017,-0.7045,-0.7069,-0.7156,-0.715,-0.717,-0.7213,-0.7255,-0.7265,-0.7274,-0.7308,-0.7319,-0.7177,-0.7177,-0.7178,0,-0.6661,-0.6729,-0.6734,-0.6785,-0.6812,-0.6802,-0.6858,-0.6882,-0.6933,-0.6952,-0.6933,-0.7029,-0.7054,-0.7133,-0.7155,-0.7174,-0.719,-0.7167,-0.7263,-0.7272,-0.7281,-0.7313,-0.7325,-0.718,-0.718,-0.7179,-0.7179,0,-0.6768,-0.6816,-0.6855,-0.6903,-0.6934,-0.6987,-0.7001,-0.7031,-0.7031,-0.7045,-0.7111,-0.714,-0.7189,-0.7208,-0.7209,-0.7287,-0.7277,-0.7261,-0.723,-0.7295,-0.7325,-0.7337,-0.7183,-0.7182,-0.7182,-0.7181,0,0,-0.6867,-0.6917,-0.6931,-0.6954,-0.6994,-0.7032,-0.7084,-0.7131,-0.7158,-0.7192,-0.7238,-0.7302,-0.7287,-0.7315,-0.7318,-0.7355,-0.7425,-0.7335,-0.7336,-0.7352,-0.7516,-0.7529,-0.7543,-0.7419,-0.7422,-0.7423,-0.7513,0,-0.6951,-0.7043,-0.7049,-0.7133,-0.7178,-0.7168,-0.7214,-0.7245,-0.7259,-0.7299,-0.7315,-0.7361,-0.7337,-0.7354,-0.739,-0.7409,-0.7458,-0.7402,-0.7464,-0.7466,-0.7457,-0.7559,-0.7573,-0.7657,-0.7525,-0.7527,-0.7528,0,-0.7061,-0.7099,-0.7187,-0.7222,-0.7241,-0.7282,-0.7326,-0.7364,-0.7399,-0.7406,-0.7437,-0.7435,-0.749,-0.7454,-0.7531,-0.7492,-0.7517,-0.753,-0.7534,-0.7542,-0.7503,-0.7572,-0.7683,-0.7697,-0.7546,-0.7545,-0.7543,0,-0.7127,-0.7199,-0.7262,-0.7281,-0.7323,-0.7352,-0.7371,-0.7403,-0.7431,-0.7469,-0.7488,-0.7532,-0.7557,-0.7591,-0.7602,-0.7575,-0.7679,-0.7643,-0.7688,-0.7688,-0.7713,-0.7712,-0.7832,-0.7725,-0.7724,-0.7724,-0.7724,0,-0.7221,-0.7277,-0.7292,-0.7331,-0.7393,-0.7398,-0.7459,-0.7476,-0.7505,-0.7548,-0.7541,-0.7582,-0.7592,-0.7634,-0.7643,-0.7706,-0.7716,-0.7725,-0.7728,-0.7728,-0.7727,-0.7746,-0.7742,-0.7727,-0.7727,-0.7726,-0.7726,0,-0.7307,-0.7319,-0.7387,-0.742,-0.743,-0.7474,-0.7503,-0.7541,-0.7553,-0.7608,-0.7621,-0.7641,-0.7691,-0.7704,-0.7763,-0.7769,-0.7844,-0.7839,-0.7832,-0.7833,-0.7878,-0.7874,-0.8017,-0.8037,-0.7914,-0.7915,-0.7916,0,-0.7368,-0.741,-0.7447,-0.7475,-0.7495,-0.754,-0.7568,-0.7575,-0.7605,-0.7647,-0.768,-0.7728,-0.7768,-0.7848,-0.7868,-0.7914,-0.7912,-0.7959,-0.7919,-0.7918,-0.7916,-0.7914,-0.7919,-0.7967,-0.7969,-0.797,-0.797,0,-0.7475,-0.7479,-0.752,-0.7563,-0.7597,-0.7631,-0.7664,-0.7688,-0.7699,-0.7733,-0.7784,-0.7814,-0.7874,-0.7923,-0.7969,-0.7989,-0.7983,-0.7982,-0.7996,-0.7998,-0.7993,-0.7998,-0.7856,-0.798,-0.7979,-0.7978,-0.7978,-0.7977,-0.7552,-0.7589,-0.7621,-0.7667,-0.7693,-0.7724,-0.7761,-0.7778,-0.782,-0.7869,-0.787,-0.7925,-0.7959,-0.8019,-0.8042,-0.8086,-0.8072,-0.809,-0.8096,-0.8101,-0.8106,-0.7983,-0.8094,-0.8093,-0.8093,-0.8093,-0.8093,0,-0.7661,-0.7681,-0.7722,-0.7769,-0.7805,-0.7794,-0.783,-0.7861,-0.791,-0.7941,-0.7979,-0.8038,-0.8085,-0.8108,-0.8155,-0.8186,-0.8184,-0.8198,-0.8198,-0.8203,-0.8114,-0.8099,-0.8199,-0.8199,-0.8199,-0.8199,-0.8199,-0.8199,-0.7722,-0.7785,-0.7793,-0.7868,-0.7888,-0.7942,-0.7964,-0.7992,-0.8017,-0.8083,-0.8121,-0.8136,-0.8165,-0.8214,-0.8257,-0.8262,-0.8281,-0.8298,-0.8302,-0.822,-0.8209,-0.8199,-0.8185,-0.8301,-0.8301,-0.8387,-0.8388,-0.8389]},{"header":{"parameterUnit":"m.s-1","parameterCategory":1,"la1":30.2991,"la2":30.254,"lo1":-89.0895,"lo2":-89.0444,"dy":0.0017,"dx":0.0017,"nx":28,"ny":28,"refTime":"2024-10-08T21:00:00:Z","depth":0,"parameterNumber":3,"parameterNumberName":"V-component_of_WINDS"},"data":[0,0,0,0,0,0,0,0,0,0,0,0,0,0,0,0,0,0,0,0,0,0,0,0,0,0,0,0,0,0,0,0,0,0,0,0,0,0,0,0,0,0,0,0,0,0,0,0,0,0,0,0,0,0,0,0,0,0,-5.0347,-5.0348,0,-5.0432,-5.0433,-5.0434,-5.0356,-5.0353,-5.035,-5.0347,-5.0429,-5.0434,-5.0439,0,0,0,0,0,0,0,0,0,0,0,0,0,-5.0115,-5.012,-5.0347,-5.0348,-5.0349,-5.0431,-5.0433,-5.0434,-5.0357,-5.0353,-5.0349,-5.0346,-5.0428,-5.0434,-5.044,0,0,0,0,0,0,0,0,0,0,0,0,0,-5.0209,-5.0121,-5.0347,-5.0321,-5.0319,-5.0431,-5.0433,-5.0434,-5.0358,-5.0353,-5.0348,-5.0344,-5.0426,-5.0433,-5.0441,-5.0581,0,0,-5.0464,-5.0467,0,0,0,0,0,0,0,0,-5.0204,-5.0218,-5.0324,-5.0323,-5.0321,-5.0379,-5.0381,-5.0483,-5.0359,-5.0343,-5.0347,-5.0342,-5.0416,-5.0424,-5.045,-5.0585,-5.0589,-5.0465,-5.0469,-5.0472,-5.0475,0,0,0,0,0,0,0,-5.0198,-5.0214,-5.038,-5.0325,-5.0324,-5.0304,-5.0312,-5.04,-5.0404,-5.0344,-5.0339,-5.035,-5.0414,-5.0443,-5.0451,-5.059,-5.0464,-5.0471,-5.0476,-5.0479,-5.0844,-5.0849,0,0,0,0,0,0,-5.0194,-5.0209,-5.0378,-5.0383,-5.025,-5.0312,-5.0321,-5.0365,-5.0403,-5.0405,-5.0354,-5.0346,-5.0432,-5.0443,-5.0454,-5.0621,-5.0472,-5.048,-5.0484,-5.0839,-5.0845,-5.085,0,0,0,0,0,0,-5.019,-5.021,-5.0374,-5.0295,-5.0314,-5.0321,-5.0371,-5.0369,-5.0398,-5.0411,-5.0411,-5.0382,-5.0429,-5.0443,-5.055,-5.0623,-5.0483,-5.049,-5.0833,-5.0841,-5.0848,-5.0957,0,0,0,0,0,0,-5.0183,-5.0209,-5.0264,-5.0296,-5.0319,-5.0471,-5.0375,-5.0374,-5.0411,-5.0402,-5.0438,-5.0439,-5.0426,-5.0539,-5.0558,-5.0631,-5.0496,-5.0826,-5.0836,-5.0845,-5.0947,-5.0967,-5.0985,0,0,0,0,0,-5.0175,-5.029,-5.0267,-5.0288,-5.0387,-5.0475,-5.0488,-5.0472,-5.0418,-5.0472,-5.048,-5.0438,-5.0612,-5.0551,-5.0571,-5.0648,-5.0821,-5.0833,-5.0844,-5.0938,-5.0963,-5.0985,0,0,0,0,0,0,-5.0264,-5.0294,-5.0268,-5.0397,-5.0435,-5.0462,-5.053,-5.0499,-5.0551,-5.054,-5.0517,-5.0526,-5.0639,-5.0654,-5.0585,-5.0785,-5.0708,-5.0724,-5.0772,-5.0796,-5.0815,-5.0809,-5.0502,0,0,0,0,0,-5.0299,-5.037,-5.0391,-5.0503,-5.0523,-5.0524,-5.0561,-5.0546,-5.0583,-5.0598,-5.0614,-5.0651,-5.0713,-5.0755,-5.0814,-5.0948,-5.0955,-5.1011,-5.103,-5.1045,-5.106,-5.1132,-5.1157,-5.0888,-5.0888,-5.0888,0,0,-5.0371,-5.0396,-5.0442,-5.0521,-5.0548,-5.0621,-5.0537,-5.0617,-5.0671,-5.061,-5.0713,-5.0726,-5.0765,-5.0886,-5.094,-5.0902,-5.1135,-5.106,-5.1072,-5.1078,-5.1146,-5.1171,-5.1194,-5.0896,-5.0895,-5.0893,0,0,-5.054,-5.0566,-5.0662,-5.0692,-5.0734,-5.0734,-5.0757,-5.079,-5.0797,-5.0899,-5.0855,-5.0917,-5.1026,-5.1056,-5.1085,-5.1265,-5.1228,-5.1285,-5.1384,-5.1455,-5.1476,-5.1495,-5.1559,-5.1582,-5.1299,-5.1299,-5.1299,0,-5.0624,-5.0733,-5.0715,-5.0799,-5.0835,-5.0785,-5.0881,-5.091,-5.0969,-5.0994,-5.095,-5.1086,-5.1108,-5.1236,-5.128,-5.1306,-5.1331,-5.1281,-5.1475,-5.1493,-5.151,-5.1571,-5.1596,-5.1306,-5.1305,-5.1304,-5.1304,0,-5.0834,-5.0911,-5.0983,-5.1043,-5.1087,-5.1177,-5.1171,-5.1217,-5.1198,-5.1202,-5.1307,-5.1332,-5.1395,-5.1424,-5.1406,-5.155,-5.1524,-5.1478,-5.14,-5.1543,-5.16,-5.1623,-5.1315,-5.1313,-5.1311,-5.1309,0,0,-5.1062,-5.1112,-5.1138,-5.1165,-5.1208,-5.1266,-5.1353,-5.1416,-5.1456,-5.1498,-5.157,-5.1663,-5.1621,-5.1654,-5.1638,-5.17,-5.1841,-5.1646,-5.1646,-5.1681,-5.2001,-5.2036,-5.2064,-5.1817,-5.1821,-5.1824,-5.1998,0,-5.1233,-5.1386,-5.1372,-5.1517,-5.1587,-5.154,-5.1615,-5.1649,-5.1655,-5.1714,-5.1719,-5.1786,-5.1725,-5.1745,-5.1804,-5.1812,-5.1905,-5.1799,-5.1882,-5.1886,-5.1875,-5.2093,-5.2131,-5.2293,-5.202,-5.2024,-5.2026,0,-5.1453,-5.1504,-5.1657,-5.1689,-5.1718,-5.1787,-5.1843,-5.19,-5.1937,-5.1937,-5.1975,-5.1948,-5.2034,-5.1954,-5.2071,-5.2,-5.2032,-5.2042,-5.2047,-5.2055,-5.1965,-5.2107,-5.2345,-5.237,-5.2061,-5.2059,-5.2056,0,-5.1604,-5.1711,-5.1816,-5.184,-5.1881,-5.193,-5.1949,-5.1982,-5.2021,-5.2069,-5.2094,-5.2152,-5.2183,-5.2228,-5.2217,-5.2159,-5.2337,-5.2256,-5.2339,-5.234,-5.2379,-5.2377,-5.2626,-5.24,-5.24,-5.2399,-5.2399,0,-5.1796,-5.1891,-5.1885,-5.195,-5.2054,-5.2037,-5.214,-5.2153,-5.2182,-5.2247,-5.2209,-5.2271,-5.2253,-5.2313,-5.2305,-5.2404,-5.2418,-5.2419,-5.2416,-5.2423,-5.2423,-5.2445,-5.2434,-5.2406,-5.2404,-5.2403,-5.2402,0,-5.1983,-5.1983,-5.2094,-5.2124,-5.2134,-5.221,-5.2234,-5.2295,-5.2297,-5.238,-5.2398,-5.2402,-5.2472,-5.2465,-5.2542,-5.2537,-5.2659,-5.2642,-5.2648,-5.2644,-5.2728,-5.272,-5.3,-5.3036,-5.2786,-5.2789,-5.2791,0,-5.2107,-5.2179,-5.2217,-5.2259,-5.2282,-5.2349,-5.2389,-5.2374,-5.2417,-5.2464,-5.2519,-5.2585,-5.2637,-5.2749,-5.2758,-5.2817,-5.2801,-5.2895,-5.2809,-5.2814,-5.2803,-5.2799,-5.2806,-5.2912,-5.2915,-5.2917,-5.2919,0,-5.2326,-5.2322,-5.2382,-5.2442,-5.2491,-5.2536,-5.2578,-5.2614,-5.2603,-5.2653,-5.2724,-5.2765,-5.2844,-5.291,-5.2965,-5.2983,-5.2949,-5.2946,-5.2968,-5.2976,-5.2977,-5.2978,-5.2694,-5.2939,-5.2937,-5.2936,-5.2935,-5.2934,-5.2485,-5.2547,-5.2584,-5.2651,-5.2681,-5.2721,-5.278,-5.279,-5.285,-5.2915,-5.2901,-5.2982,-5.3016,-5.3087,-5.3111,-5.3172,-5.3138,-5.317,-5.3178,-5.3187,-5.3197,-5.2967,-5.3182,-5.3181,-5.318,-5.318,-5.318,0,-5.2702,-5.2723,-5.2786,-5.2846,-5.2899,-5.2864,-5.2909,-5.2955,-5.3026,-5.3062,-5.3114,-5.3196,-5.3259,-5.3273,-5.3334,-5.338,-5.3366,-5.3397,-5.3393,-5.3398,-5.3224,-5.3198,-5.3407,-5.3407,-5.3407,-5.3407,-5.3407,-5.3407,-5.2821,-5.2925,-5.2926,-5.3043,-5.3063,-5.3143,-5.3171,-5.3207,-5.3236,-5.3329,-5.3382,-5.3391,-5.3418,-5.348,-5.3536,-5.3539,-5.3563,-5.36,-5.3596,-5.3433,-5.341,-5.3388,-5.3365,-5.3605,-5.3605,-5.3765,-5.3766,-5.3768]}]]